This demonstration page uses our WeatherBlox Daily Observations layout. Learn more.

Left ArrowRight Arrow

39.01783, -85.05884

Hourly Observations for October 15, 2015

Temp ( °F °C ) Dew Point ( °F °C ) Humidity (%) Winds ( mph kmh ) Pressure ( in mb ) Visibility ( mi km ) Precip ( " mm )
12:52 am 00:52 Clear 50 10 37 2.8 61 61 NNW 7 11 30.06 1018 10 16 N/A
1:52 am 01:52 Clear 49 9.4 37 2.8 64 64 N 5 7 30.07 1018 10 16 N/A
2:52 am 02:52 Clear 45 7.2 37 2.8 74 74 N N/A 30.06 1018 10 16 N/A
3:52 am 03:52 Clear 39 3.9 36 2.2 89 89 N N/A 30.08 1019 10 16 N/A
4:52 am 04:52 Clear 40 4.4 38 3.3 93 93 N N/A 30.07 1018 10 16 N/A
5:52 am 05:52 Clear 37 2.8 35 1.7 93 93 SSW 3 6 30.09 1019 10 16 N/A
6:52 am 06:52 Clear 39 4 37 3 93 93 N N/A 30.11 1020 10 16 N/A
7:52 am 07:52 Sunny 37 2.8 36 2.2 96 96 S 3 6 30.11 1020 10 16 N/A
8:52 am 08:52 Sunny 44 6.7 40 4.4 85 85 N N/A 30.13 1020 10 16 N/A
9:52 am 09:52 Sunny 53 11.7 41 5 64 64 SSW 7 11 30.14 1021 10 16 N/A
10:52 am 10:52 Sunny 59 15 39 3.9 48 48 WSW 9 15 30.14 1021 10 16 N/A
11:52 am 11:52 Sunny 62 16.7 39 3.9 43 43 SW 8 13 30.12 1020 10 16 N/A
12:52 pm 12:52 Sunny 66 18.9 39 3.9 37 37 VRB 7 11 30.11 1020 10 16 N/A
1:52 pm 13:52 Sunny 67 19.4 38 3.3 35 35 WSW 8 13 30.07 1018 10 16 N/A
2:52 pm 14:52 Sunny 68 20 36 2.2 31 31 SSW 12 19 30.04 1017 10 16 N/A
3:52 pm 15:52 Mostly Sunny 69 20.6 37 2.8 31 31 S 8 13 30.01 1016 10 16 N/A
4:52 pm 16:52 Partly Cloudy 69 20.6 37 2.8 31 31 SSW 14 22 29.99 1016 10 16 N/A
5:52 pm 17:52 Partly Cloudy 67 19.4 38 3.3 35 35 SSW 9 15 29.99 1016 10 16 N/A
6:52 pm 18:52 Mostly Cloudy 65 18.3 39 3.9 39 39 WSW 5 7 30.00 1016 10 16 N/A
7:52 pm 19:52 Mostly Cloudy 64 17.8 41 5 43 43 SW 5 7 30.00 1016 10 16 N/A
8:52 pm 20:52 Mostly Cloudy 61 16.1 42 5.6 50 50 SSW 6 9 29.99 1016 10 16 N/A
9:52 pm 21:52 Cloudy 62 16.7 43 6.1 50 50 SW 6 9 29.99 1016 10 16 N/A
10:52 pm 22:52 Mostly Cloudy 61 16.1 43 6.1 52 52 W 10 17 30.02 1017 10 16 N/A
11:52 pm 23:52 Partly Cloudy 63 17.2 39 3.9 41 41 NW 14 22 30.04 1017 10 16 N/A

Powered by AerisWeather